Change the Weather History Date:

Saturday, December 7, 2013

  Actual Average Record
Temperature  
Mean Temperature 27 °F -  
Max Temperature 35 °F -2 °F 35 °F (2013)
Min Temperature 19 °F -17 °F -55 °F (1975)
Degree Days  
Heating Degree Days 38    
Moisture  
Dew Point 30 °F    
Average Humidity 96    
Maximum Humidity 100    
Minimum Humidity 92    
Precipitation  
Precipitation 0.04 in - - ()
Snow  
Snow 0.00 in - - ()
Snow Depth 18.00 in    
Sea Level Pressure  
Sea Level Pressure 30.20 in    
Wind  
Wind Speed 1 mph (South)    
Max Wind Speed 9 mph    
Max Gust Speed 17 mph    
Visibility 2 miles    
Events Fog , Rain    
Averages and records for this station are not official NWS values.
T = Trace of Precipitation, MM = Missing Value Source: NWS Daily Summary

Daily Weather History Graph

Daily Weather History Graph

Search for Another Location

Airport or City:

Trip Planner

Search our weather history database for the weather conditions in past years. The results will help you decide how hot, cold, wet, or windy it might be!

Date:

Astronomy

Dec. 07, 2013 Rise Set
Actual Time 11:38 AM AKST 2:16 PM AKST
Civil Twilight 9:52 AM AKST 4:02 PM AKST
Nautical Twilight 8:33 AM AKST 5:21 PM AKST
Astronomical Twilight 7:26 AM AKST 6:28 PM AKST
Moon 1:05 PM AKST (12/7) 10:46 PM AKST (12/7)
Length of Visible Light 6h 09m
Length of Day
2h 38m
Waxing Crescent, 31% of the Moon is Illuminated
Dec 7
Waxing Crescent
Dec 9
First Quarter
Dec 17
Full
Dec 25
Last Quarter
Jan 1
New

Hourly Weather History & Observations

Time (AKST) Temp. Windchill Dew Point Humidity Pressure Visibility Wind Dir Wind Speed Gust Speed Precip Events Conditions
12:53 AM 28.0 °F 24.2 °F 26.1 °F 92% 30.30 in 6.0 mi ESE 3.5 mph - N/A   Overcast
1:33 AM 28.4 °F - 26.6 °F 93% 30.24 in 1.5 mi Calm Calm - N/A   Overcast
1:53 AM 28.0 °F - 27.0 °F 96% 30.29 in 1.0 mi Calm Calm - N/A   Mist
2:05 AM 28.4 °F - 26.6 °F 93% 30.24 in 0.5 mi Calm Calm - N/A Fog Light Freezing Fog
2:48 AM 28.4 °F - 28.4 °F 100% 30.23 in 0.8 mi Calm Calm - N/A   Mist
2:53 AM 28.9 °F - 28.0 °F 96% 30.28 in 1.0 mi Calm Calm - N/A   Mist
3:53 AM 28.9 °F - 28.0 °F 96% 30.28 in 1.0 mi Calm Calm - N/A   Mist
4:53 AM 28.0 °F - 27.0 °F 96% 30.28 in 1.0 mi Calm Calm - N/A   Light Freezing Drizzle
5:53 AM 28.0 °F - 27.0 °F 96% 30.27 in 1.2 mi Calm Calm - N/A   Light Freezing Drizzle
6:53 AM 28.0 °F - 27.0 °F 96% 30.26 in 1.0 mi Calm Calm - N/A   Light Freezing Drizzle
7:00 AM 28.4 °F - 26.6 °F 93% 30.22 in 1.0 mi Calm Calm - N/A   Light Freezing Drizzle
7:07 AM 28.4 °F - 26.6 °F 93% 30.22 in 0.5 mi Calm Calm - N/A Fog Light Freezing Drizzle
7:53 AM 28.0 °F - 28.0 °F 100% 30.26 in 0.8 mi Calm Calm - N/A   Light Freezing Drizzle
7:57 AM 28.4 °F - 28.4 °F 100% 30.21 in 1.0 mi Calm Calm - N/A   Light Freezing Drizzle
8:53 AM 28.0 °F - 27.0 °F 96% 30.26 in 1.0 mi Calm Calm - N/A   Light Freezing Drizzle
9:44 AM 28.4 °F - 28.4 °F 100% 30.22 in 0.8 mi Calm Calm - N/A   Light Freezing Drizzle
9:53 AM 28.9 °F - 28.0 °F 96% 30.27 in 0.8 mi Calm Calm - N/A   Light Freezing Drizzle
10:53 AM 30.0 °F - 28.9 °F 96% 30.26 in 0.5 mi Calm Calm - N/A Fog Light Freezing Drizzle
11:20 AM 30.2 °F - 28.4 °F 93% 30.21 in 0.8 mi Calm Calm - N/A   Light Freezing Drizzle
11:53 AM 30.0 °F - 28.9 °F 96% 30.26 in 0.8 mi Calm Calm - N/A   Light Freezing Drizzle
12:02 PM 30.2 °F - 30.2 °F 100% 30.21 in 0.8 mi Calm Calm - N/A   Light Freezing Drizzle
12:51 PM 30.2 °F - 28.4 °F 93% 30.21 in 1.0 mi Calm Calm - N/A   Light Freezing Drizzle
12:53 PM 30.0 °F - 28.9 °F 96% 30.26 in 1.0 mi Calm Calm - N/A   Light Freezing Drizzle
1:22 PM 30.2 °F - 28.4 °F 93% 30.20 in 0.8 mi Calm Calm - N/A   Light Freezing Drizzle
1:36 PM 30.2 °F - 28.4 °F 93% 30.19 in 0.8 mi Calm Calm - N/A   Light Freezing Drizzle
1:53 PM 30.0 °F - 28.9 °F 96% 30.24 in 0.8 mi Calm Calm - N/A   Light Freezing Drizzle
2:53 PM 30.0 °F - 28.9 °F 96% 30.23 in 0.5 mi Calm Calm - N/A Fog Light Freezing Drizzle
3:34 PM 30.2 °F - 30.2 °F 100% 30.16 in 0.5 mi Calm Calm - N/A Fog , Rain Light Freezing Rain
3:53 PM 30.9 °F - 30.0 °F 96% 30.20 in 0.5 mi Calm Calm - N/A Fog , Rain Light Freezing Rain
4:17 PM 30.2 °F - 30.2 °F 100% 30.15 in 0.8 mi Calm Calm - N/A Rain Light Freezing Rain
4:27 PM 30.2 °F - 30.2 °F 100% 30.15 in 1.0 mi Calm Calm - N/A   Overcast
4:53 PM 30.9 °F - 30.0 °F 96% 30.19 in 1.0 mi Calm Calm - N/A   Light Freezing Drizzle
5:29 PM 30.2 °F - 30.2 °F 100% 30.13 in 0.8 mi Calm Calm - N/A   Light Freezing Drizzle
5:41 PM 30.2 °F - 30.2 °F 100% 30.13 in 1.0 mi Calm Calm - N/A   Overcast
5:53 PM 30.9 °F - 30.9 °F 100% 30.18 in 1.0 mi Calm Calm - N/A   Mist
6:06 PM 30.2 °F 26.7 °F 30.2 °F 100% 30.12 in 0.8 mi South 3.5 mph - N/A   Mist
6:23 PM 32.0 °F - 30.2 °F 93% 30.12 in 0.8 mi Calm Calm - N/A   Mist
6:39 PM 32.0 °F 27.5 °F 32.0 °F 100% 30.12 in 1.0 mi South 4.6 mph - N/A   Overcast
6:53 PM 32.0 °F 24.8 °F 30.9 °F 96% 30.16 in 3.0 mi South 8.1 mph - N/A   Overcast
7:35 PM 33.8 °F 28.6 °F 32.0 °F 93% 30.10 in 7.0 mi SSE 5.8 mph - N/A   Overcast
7:53 PM 33.1 °F 26.9 °F 32.0 °F 96% 30.14 in 7.0 mi SSE 6.9 mph - N/A   Overcast
8:53 PM 34.0 °F 27.2 °F 33.1 °F 96% 30.14 in 3.0 mi SSE 8.1 mph - N/A   Overcast
9:15 PM 33.8 °F 27.7 °F 33.8 °F 100% 30.10 in 6.0 mi SSE 6.9 mph - N/A   Overcast
9:20 PM 33.8 °F 27.7 °F 33.8 °F 100% 30.10 in 6.0 mi South 6.9 mph - N/A   Overcast
9:53 PM 34.0 °F 31.0 °F 33.1 °F 96% 30.16 in 6.0 mi South 3.5 mph - N/A   Overcast
10:38 PM 35.6 °F 31.7 °F 33.8 °F 93% 30.12 in 10.0 mi SW 4.6 mph - N/A   Overcast
10:53 PM 34.0 °F 28.8 °F 33.1 °F 96% 30.16 in 10.0 mi SSW 5.8 mph - N/A   Overcast
11:10 PM 35.6 °F 30.7 °F 33.8 °F 93% 30.12 in 10.0 mi SSW 5.8 mph - N/A   Mostly Cloudy
11:53 PM 35.1 °F 27.9 °F 33.1 °F 92% 30.17 in 10.0 mi SSW 9.2 mph 17.3 mph N/A   Overcast